"Pseudo-MPEC" for C10EY75

Created 2025 Feb 8 4:31:03 UT using Find_Orb

Click here for an explanation of pseudo-MPECs

 
 Astrometry: 
     C10EY75* C2025 01 19.14701800 13 07.057+11 11 02.00   ~1J4H 22.02GVNEOCPV00
     C10EY75  C2025 01 19.15262900 13 06.942+11 10 57.61   ~1J4H 22.31GVNEOCPV00
     C10EY75  C2025 01 19.15824700 13 06.769+11 10 53.98   ~1J4H 22.49GVNEOCPV00

Station data:
(V00) Kitt Peak-Bok  (N31.963125 W111.600190)  US/Arizona.  Observers T. A.
   Pruyne, B. M. Africano, E. J. Christensen, G. A. Farneth, D. C. Fuls, A.
   R. Gibbs, A. D. Grauer, H. Gröller, J. A. Johnson, R. A. Kowalski, S. M.
   Larson, G. J. Leonard, D. Rankin, R. L. Seaman, F. C. Shelly, K. W.
   Wierzchoś. 2.25-m reflector + 4x4K mosaic CCD.

Orbital elements:  C10EY75
   Perihelion 2024 Dec 29.97658 +/- 58.3 TT = 23:26:16 (JD 2460674.47658)
Epoch 2025 Jan 19.0 TT = JDT 2460694.5   Earth MOID: 0.1239      AutoNEOCP
M   6.47321450 +/- 54               (J2000 ecliptic)
n   0.32328217 +/- 0.633            Peri.   26.16903 +/- 130
a   2.10255907 +/- 2.74             Node   110.19528 +/- 60
e   0.4816595 +/- 0.255             Incl.  169.15074 +/- 60
P   3.04875                H 20.33  G  0.15   U 12.4  SR
q 1.08984132 +/- 0.653    Q 3.11527682 +/- 24.9
From 3 observations 2025 Jan. 19 (16.2 min); mean residual 0".19
Residuals in arcseconds: 
250119 V00  .14-  .12+    250119 V00  .29+  .25-    250119 V00  .14-  .13+    

Ephemerides (geocentric):
Date (UTC) HH   RA             Dec           delta  r     elong  mag " sig PA
---- --------  ------------   ------------  ------ ------ -----  --- --------
2025 02 08 05  00 10 38.476   +09 06 18.04  1.6031 1.1803  47.2 23.2 8537 136
2025 02 08 06  00 10 38.580   +09 06 10.78  1.6043 1.1805  47.1 23.2 8587 136
2025 02 08 07  00 10 38.684   +09 06 03.53  1.6054 1.1807  47.1 23.2 8638 136
2025 02 08 08  00 10 38.790   +09 05 56.31  1.6066 1.1809  47.0 23.2 8689 136
2025 02 08 09  00 10 38.897   +09 05 49.11  1.6077 1.1810  47.0 23.2 8740 136
2025 02 08 10  00 10 39.005   +09 05 41.93  1.6088 1.1812  47.0 23.2 8792 136
2025 02 08 11  00 10 39.114   +09 05 34.76  1.6100 1.1814  46.9 23.2 8844 136
2025 02 08 12  00 10 39.224   +09 05 27.62  1.6111 1.1816  46.9 23.2 8896 136
2025 02 08 13  00 10 39.335   +09 05 20.50  1.6122 1.1818  46.8 23.2 8948 136
2025 02 08 14  00 10 39.447   +09 05 13.40  1.6134 1.1819  46.8 23.2 9001 136
2025 02 08 15  00 10 39.560   +09 05 06.32  1.6145 1.1821  46.8 23.2 9054 136
2025 02 08 16  00 10 39.673   +09 04 59.26  1.6156 1.1823  46.7 23.2 9107 136
2025 02 08 17  00 10 39.788   +09 04 52.22  1.6168 1.1825  46.7 23.2 9161 136
2025 02 08 18  00 10 39.904   +09 04 45.20  1.6179 1.1826  46.6 23.2 9214 136
2025 02 08 19  00 10 40.021   +09 04 38.20  1.6190 1.1828  46.6 23.2 9269 136
2025 02 08 20  00 10 40.139   +09 04 31.22  1.6202 1.1830  46.5 23.2 9323 136
2025 02 08 21  00 10 40.258   +09 04 24.26  1.6213 1.1832  46.5 23.2 9378 136
2025 02 08 22  00 10 40.378   +09 04 17.32  1.6224 1.1833  46.5 23.3 9433 136
2025 02 08 23  00 10 40.499   +09 04 10.40  1.6235 1.1835  46.4 23.3 9488 136
2025 02 09 00  00 10 40.621   +09 04 03.50  1.6247 1.1837  46.4 23.3 9544 136
2025 02 09 01  00 10 40.744   +09 03 56.62  1.6258 1.1839  46.3 23.3 9600 136
2025 02 09 02  00 10 40.868   +09 03 49.76  1.6269 1.1841  46.3 23.3 9656 136
2025 02 09 03  00 10 40.993   +09 03 42.92  1.6280 1.1842  46.2 23.3 9713 136
2025 02 09 04  00 10 41.119   +09 03 36.09  1.6292 1.1844  46.2 23.3 9770 136
2025 02 09 05  00 10 41.246   +09 03 29.29  1.6303 1.1846  46.2 23.3 9827 136
2025 02 09 06  00 10 41.374   +09 03 22.51  1.6314 1.1848  46.1 23.3 9885 136
2025 02 09 07  00 10 41.503   +09 03 15.75  1.6325 1.1849  46.1 23.3 9943 136
2025 02 09 08  00 10 41.633   +09 03 09.00  1.6337 1.1851  46.0 23.3 167' 136
2025 02 09 09  00 10 41.764   +09 03 02.28  1.6348 1.1853  46.0 23.3 168' 136
2025 02 09 10  00 10 41.896   +09 02 55.57  1.6359 1.1855  46.0 23.3 169' 136
2025 02 09 11  00 10 42.029   +09 02 48.89  1.6370 1.1857  45.9 23.3 170' 136
2025 02 09 12  00 10 42.162   +09 02 42.22  1.6381 1.1858  45.9 23.3 171' 136
2025 02 09 13  00 10 42.297   +09 02 35.57  1.6392 1.1860  45.8 23.3 172' 136
2025 02 09 14  00 10 42.433   +09 02 28.94  1.6404 1.1862  45.8 23.3 173' 136
2025 02 09 15  00 10 42.570   +09 02 22.34  1.6415 1.1864  45.7 23.3 174' 136
2025 02 09 16  00 10 42.707   +09 02 15.75  1.6426 1.1866  45.7 23.3 175' 136
2025 02 09 17  00 10 42.846   +09 02 09.18  1.6437 1.1867  45.7 23.3 176' 136
2025 02 09 18  00 10 42.985   +09 02 02.62  1.6448 1.1869  45.6 23.3 177' 136
2025 02 09 19  00 10 43.126   +09 01 56.09  1.6459 1.1871  45.6 23.3 178' 136
2025 02 09 20  00 10 43.267   +09 01 49.58  1.6471 1.1873  45.5 23.3 179' 136
2025 02 09 21  00 10 43.410   +09 01 43.08  1.6482 1.1875  45.5 23.3 180' 136
2025 02 09 22  00 10 43.553   +09 01 36.61  1.6493 1.1876  45.5 23.3 181' 136
2025 02 09 23  00 10 43.697   +09 01 30.15  1.6504 1.1878  45.4 23.3 182' 136
2025 02 10 00  00 10 43.843   +09 01 23.71  1.6515 1.1880  45.4 23.3 183' 136
2025 02 10 01  00 10 43.989   +09 01 17.29  1.6526 1.1882  45.3 23.3 184' 136
2025 02 10 02  00 10 44.136   +09 01 10.89  1.6537 1.1884  45.3 23.3 185' 136
2025 02 10 03  00 10 44.284   +09 01 04.51  1.6548 1.1885  45.2 23.3 186' 136
2025 02 10 04  00 10 44.433   +09 00 58.14  1.6559 1.1887  45.2 23.3 187' 136